2017-008E

Last updated on Tue Feb 28 2017 00:15:03 GMT+0000 (Coordinated Universal Time)

1 41952U 17008E 17058.63098001 .00001503 00000-0 69039-4 0 9995 2 41952 97.5110 120.2460 0007081 229.3445 130.7176 15.21952399 1862
UTC large
Height (km)
Speed (km/s)
/
Latitude / Longitude
Inclination (degrees)
Orbital Period (minutes)
Azimuth
Elevation
Range (km)
Doppler Factor

Next 0 passes for location: London (51.5072 / 0.1276)

Sorry there are no passes over London.
2017-008E